Weather Roundup
Issued by NWS

Home | Current Version | Previous Version | Text Only | Print | Product List | Glossary On
Versions: 1 2 3 4 5 6 7 8 9 10 11 12 13 14 15 16 17 18 19 20 21 22 23 24 25 26 27 28 29 30 31 32 33 34 35 36 37 38 39 40 41 42 43 44 45 46 47 48 49 50
000
NZUS93 KARX 061910
HRRWXR

CURRENT HOURLY OBSERVATIONS ACROSS
MUCH OF THE UPPER MISSISSIPPI VALLEY
NATIONAL WEATHER SERVICE LA CROSSE WI
100 PM CST SAT FEB 06 2016


...SOUTHEAST MINNESOTA...


CITY           SKY/WX    TMP DP  RH WIND       PRES   REMARKS
ROCHESTER      CLOUDY    27  24  89 S16       30.08F FOG     WCI  15
ROCHESTER/MAYO MOCLDY    29  26  86 S13       30.09F WCI  19
WINONA         SUNNY     34  27  75 S3        30.12F
AUSTIN         CLOUDY    28  27  93 SW14      30.09F FOG     WCI  17
ALBERT LEA     CLOUDY    30  28  93 S8        30.07F WCI  23
DODGE CENTER   CLOUDY    28  27  93 SW14      30.06F FOG     WCI  17
PRESTON        CLOUDY    27  24  89 SW12      30.10F FOG     WCI  17
OWATONNA       CLOUDY    30  27  86 S17       30.04F WCI  18
FARIBAULT      CLOUDY    34  27  75 S8        30.04F WCI  27
$$

...ELSEWHERE IN MINNESOTA...


CITY           SKY/WX    TMP DP  RH WIND       PRES   REMARKS
MINNEAPOLIS    CLOUDY    35  25  66 S15G21    30.01F WCI  25
INTNL FALLS    CLOUDY    28  20  71 SE9       29.78F WCI  19
DULUTH         CLOUDY    30  22  72 S12       29.87F WCI  20
RED WING       SUNNY     32  25  74 S10       30.06F WCI  24
REDWOOD FALLS  MOSUNNY   34  26  72 SW18      29.95F WCI  23
MANKATO        MOSUNNY   32  25  74 S16       30.03F WCI  21
WORTHINGTON    CLOUDY    28  23  80 SW20      30.01F WCI  15
FAIRMONT       SUNNY     30  25  80 SW16      30.04F WCI  19
$$

...SOUTHWEST WISCONSIN...


CITY           SKY/WX    TMP DP  RH WIND       PRES   REMARKS
LA CROSSE      SUNNY     32  23  69 S10       30.13F WCI  24
PRAIRIE DU CHI CLOUDY    33  25  71 SW6       30.16F WCI  27
BOSCOBEL       MOSUNNY   34  26  72 W9        30.16F WCI  27
LONE ROCK      CLOUDY    32  25  75 SW9       30.16F WCI  24
PLATTEVILLE    CLOUDY    31  28  89 W12       30.15F WCI  22
FORT MC COY    CLOUDY    34  25  67 SW7       30.12F WCI  28
CAMP DOUGLAS   PTSUNNY   34  28  80 SW9       30.10F WCI  26
VIROQUA        FAIR      32  25  74 SW9       30.11F WCI  24
WIS DELLS      MOSUNNY   32  24  73 SW15      30.12F WCI  21
$$

...ELSEWHERE IN WISCONSIN...


CITY           SKY/WX    TMP DP  RH WIND       PRES   REMARKS
MILWAUKEE      CLOUDY    33  25  72 SW12      30.15F WCI  24
MADISON        CLOUDY    31  25  78 SW9       30.14F WCI  23
GREEN BAY      CLOUDY    29  24  82 W12       30.11F WCI  19
EAU CLAIRE     CLOUDY    31  21  66 S12       30.06F WCI  22
BLACK RVR FLS  CLOUDY    33  22  62 SW8       30.10F WCI  27
MEDFORD        CLOUDY    28  22  78 S9        30.03F WCI  19
WAUSAU         CLOUDY    30  22  72 SW8       30.04F WCI  22
WIS RAPIDS     CLOUDY    31  22  69 W12       30.10F WCI  22
MARSHFIELD     CLOUDY    31  21  66 SW9       30.05F WCI  23
RICE LAKE      SUNNY     31  23  71 S10       30.02F WCI  22
$$

...NORTHEAST IOWA...


CITY           SKY/WX    TMP DP  RH WIND       PRES   REMARKS
WATERLOO       CLOUDY    29  26  89 W13       30.16F FOG     WCI  19
DUBUQUE        CLOUDY    30  27  88 W13       30.16F WCI  20
DECORAH        CLOUDY    28  27  93 SW9       30.12F WCI  20
MASON CITY     CLOUDY    28  28 100 S13       30.12F FOG     WCI  17
CHARLES CITY   CLOUDY    28  28 100 SW13      30.14F FOG     WCI  18
OELWEIN        CLOUDY    30  28  93 W10       30.16F WCI  21
$$

...ELSEWHERE IN IOWA...


CITY           SKY/WX    TMP DP  RH WIND       PRES   REMARKS
DES MOINES     CLOUDY    33  28  81 SW10      30.20F WCI  25
IOWA CITY      MOSUNNY   39  30  70 W7        30.20F WCI  34
FORT DODGE     CLOUDY    30  27  86 SW14      30.13F WCI  20
MARSHALLTOWN   CLOUDY    30  27  88 SW13      30.16F FOG     WCI  20
CEDAR RAPIDS   PTSUNNY   35  30  82 SW5       30.16F WCI  31
$$

...NORTHERN ILLINOIS...


CITY           SKY/WX    TMP DP  RH WIND       PRES   REMARKS
CHICAGO-OHARE  MOSUNNY   36  27  69 W13       30.18F WCI  27
CHICAGO-MIDWAY PTSUNNY   39  26  59 W12       30.19F WCI  32
MOLINE         SUNNY     43  25  49 SW14      30.19F
ROCKFORD       MOSUNNY   40  27  59 W12       30.19F WCI  33
PEORIA         SUNNY     44  27  51 S10       30.21F
$$

NOTE: "FAIR" INDICATES FEW OR NO CLOUDS BELOW 12,000 FEET WITH NO
SIGNIFICANT WEATHER AND/OR OBSTRUCTIONS TO VISIBILITY. WIND
SPEEDS ARE IN MILES-PER-HOUR.




USA.gov is the U.S. government's official web portal to all federal, state and local government web resources and services.